Location: Berkeley
(37.8716°N, 122.2727°W)
Time: 15:47:37
(UTC-07:00)

Envisat - Pass Details

Date: 11 May 2026
Orbit: 761 x 763 km, 98.4° (Epoch: 7 June)

Event Time Altitude Azimuth Distance (km) Brightness Sun altitude
Rises 02:49:31 0° 27° (NNE) 3,229 7.5 -29.1°
Reaches altitude 10° 02:52:14 10° 40° (NE) 2,298 6.4 -28.8°
Maximum altitude 02:56:21 25° 95° (E) 1,511 4.7 -28.4°
Enters shadow 02:57:25 23° 115° (ESE) 1,576 4.6 -28.3°
